N5ZPR Weather Reports


Display with metric or nautical units.
time (UTC)temp
F
wind
direction
speed
MPH
gust
MPH
rain 1hr
in
rain 24hr
in
rain mn
in
humidity
%
barometer
mb
20260904201004 99 164 0.0 0.0 0.00 0.00 0.00 39 1010.0
20260904200004 99 196 0.0 0.0 0.00 0.00 0.00 41 1010.6
20260904195003 98 162 0.0 0.0 0.00 0.00 0.00 41 1010.6
20260904193004 99 189 0.0 0.0 0.00 0.00 0.00 41 1010.8
20260904192003 98 145 0.0 0.0 0.00 0.00 0.00 43 1010.8
20260904191003 96 198 0.0 0.0 0.00 0.00 0.00 45 1011.4
20260904190004 96 151 0.0 0.0 0.00 0.00 0.00 45 1011.4
20260904185004 96 156 0.0 0.0 0.00 0.00 0.00 46 1011.4
20260904184004 96 32 0.0 0.0 0.00 0.00 0.00 47 1011.4
20260904183004 98 102 0.0 0.0 0.00 0.00 0.00 45 1011.4
20260904182004 97 191 0.0 0.0 0.00 0.00 0.00 45 1011.7
20260904181004 98 149 0.0 0.0 0.00 0.00 0.00 44 1011.7
20260904175004 96 221 0.0 0.0 0.00 0.00 0.00 48 1012.2
20260904174003 95 138 0.0 0.0 0.00 0.00 0.00 49 1012.2
20260904173005 95 231 0.0 0.0 0.00 0.00 0.00 48 1012.2
20260904172004 93 88 0.0 0.0 0.00 0.00 0.00 52 1012.5
20260904171004 93 165 0.0 0.0 0.00 0.00 0.00 53 1012.5
20260904170004 94 128 0.0 0.0 0.00 0.00 0.00 52 1012.5
20260904165003 92 160 0.0 0.0 0.00 0.00 0.00 54 1012.5
20260904164004 92 243 0.0 0.0 0.00 0.00 0.00 51 1012.6
20260904163003 92 219 0.0 0.0 0.00 0.00 0.00 50 1012.5
20260904162004 91 225 0.0 0.0 0.00 0.00 0.00 54 1012.5
20260904161004 91 166 0.0 0.0 0.00 0.00 0.00 54 1012.5
20260904160003 91 124 0.0 0.0 0.00 0.00 0.00 57 1012.4
20260904155003 89 156 0.0 0.0 0.00 0.00 0.00 60 1012.4
20260904153003 88 203 0.0 0.0 0.00 0.00 0.00 68 1012.5
20260904152004 88 154 0.0 0.0 0.00 0.00 0.00 69 1012.5
20260904151004 86 149 0.0 0.0 0.00 0.00 0.00 73 1012.5
20260904145003 84 207 0.0 0.0 0.00 0.00 0.00 76 1012.5
20260904143003 82 191 0.0 0.0 0.00 0.00 0.00 82 1012.5
20260904142003 82 147 0.0 0.0 0.00 0.00 0.00 82 1012.5
20260904141003 82 0 0.0 0.0 0.00 0.00 0.00 83 1011.7
20260904140003 80 0 0.0 0.0 0.00 0.00 0.00 86 1011.7
20260904135003 80 0 0.0 0.0 0.00 0.00 0.00 87 1011.7
20260904134003 79 0 0.0 0.0 0.00 0.00 0.00 87 1011.7
20260904133003 79 0 0.0 0.0 0.00 0.00 0.00 87 1011.7
20260904132003 79 0 0.0 0.0 0.00 0.00 0.00 87 1011.7
20260904131004 79 0 0.0 0.0 0.00 0.00 0.00 87 1011.7
20260904130004 79 0 0.0 0.0 0.00 0.00 0.00 86 1011.7
20260904125003 79 0 0.0 0.0 0.00 0.00 0.00 86 1011.7
20260904124003 78 0 0.0 0.0 0.00 0.00 0.00 88 1011.5
20260904123003 78 0 0.0 0.0 0.00 0.00 0.00 88 1011.5
20260904122004 78 0 0.0 0.0 0.00 0.00 0.00 87 1011.5
20260904121003 79 0 0.0 0.0 0.00 0.00 0.00 87 1011.2
20260904120003 78 0 0.0 0.0 0.00 0.00 0.00 87 1011.2
20260904115004 78 0 0.0 0.0 0.00 0.00 0.00 87 1011.0
20260904114004 79 0 0.0 0.0 0.00 0.00 0.00 86 1011.0
20260904113003 79 0 0.0 0.0 0.00 0.00 0.00 85 1011.0
20260904112004 79 0 0.0 0.0 0.00 0.00 0.00 87 1011.0
20260904111003 79 0 0.0 0.0 0.00 0.00 0.00 86 1011.0
20260904110004 79 0 0.0 0.0 0.00 0.00 0.00 85 1011.0
20260904105003 79 0 0.0 0.0 0.00 0.00 0.00 86 1010.7
20260904104003 79 0 0.0 0.0 0.00 0.00 0.00 84 1010.7
20260904102004 79 0 0.0 0.0 0.00 0.00 0.00 84 1010.7
20260904101004 80 0 0.0 0.0 0.00 0.00 0.00 85 1010.7
20260904095004 78 0 0.0 0.0 0.00 0.00 0.00 87 1010.7
20260904094004 78 0 0.0 0.0 0.00 0.00 0.00 87 1010.7
20260904093004 78 0 0.0 0.0 0.00 0.00 0.00 87 1010.7
20260904091003 78 0 0.0 0.0 0.00 0.00 0.00 86 1010.5
20260904090004 78 0 0.0 0.0 0.00 0.00 0.00 86 1010.5
20260904085004 78 0 0.0 0.0 0.00 0.00 0.00 86 1010.5
20260904084003 78 0 0.0 0.0 0.00 0.00 0.00 86 1010.5
20260904083004 78 0 0.0 0.0 0.00 0.00 0.00 86 1010.5
20260904082003 78 0 0.0 0.0 0.00 0.00 0.00 86 1010.5
20260904075004 78 0 0.0 0.0 0.00 0.00 0.00 85 1010.5
20260904073003 78 0 0.0 0.0 0.00 0.00 0.00 84 1011.1
20260904072003 78 0 0.0 0.0 0.00 0.00 0.00 84 1011.1
20260904071003 78 0 0.0 0.0 0.00 0.00 0.00 84 1011.1
20260904070003 78 0 0.0 0.0 0.00 0.00 0.00 84 1011.1
20260904065003 78 0 0.0 0.0 0.00 0.00 0.00 83 1011.0
20260904064003 79 0 0.0 0.0 0.00 0.00 0.00 83 1011.0
20260904063003 79 0 0.0 0.0 0.00 0.00 0.00 83 1011.0
20260904062004 79 0 0.0 0.0 0.00 0.00 0.00 82 1011.0
20260904060003 79 0 0.0 0.0 0.00 0.00 0.00 81 1010.9
20260904055004 79 0 0.0 0.0 0.00 0.00 0.00 81 1010.9
20260904054003 79 0 0.0 0.0 0.00 0.00 0.00 81 1010.9
20260904053003 80 0 0.0 0.0 0.00 0.00 0.00 80 1010.9
20260904052003 80 0 0.0 0.0 0.00 0.00 0.00 79 1010.9
20260904051004 80 0 0.0 0.0 0.00 0.00 0.00 78 1010.9
20260904050004 80 0 0.0 0.0 0.00 0.00 0.00 77 1010.9
20260904045003 80 0 0.0 0.0 0.00 0.00 0.00 76 1010.9
20260904044003 80 0 0.0 0.0 0.00 0.00 0.00 75 1010.9
20260904043004 80 0 0.0 0.0 0.00 0.00 0.00 73 1011.0
20260904041004 80 0 0.0 0.0 0.00 0.00 0.00 71 1011.0
20260904040003 81 0 0.0 0.0 0.00 0.00 0.00 71 1011.0
20260904035004 81 0 0.0 0.0 0.00 0.00 0.00 71 1011.0
20260904034003 81 0 0.0 0.0 0.00 0.00 0.00 71 1010.9
20260904033004 81 0 0.0 0.0 0.00 0.00 0.00 71 1010.9
20260904032003 82 0 0.0 0.0 0.00 0.00 0.00 71 1010.9
20260904030003 82 0 0.0 0.0 0.00 0.00 0.00 71 1010.7
20260904025004 82 0 0.0 0.0 0.00 0.00 0.00 72 1009.8
20260904024004 83 0 0.0 0.0 0.00 0.00 0.00 72 1009.8
20260904023004 83 0 0.0 0.0 0.00 0.00 0.00 71 1009.8
20260904022003 83 0 0.0 0.0 0.00 0.00 0.00 72 1009.8
20260904020003 84 0 0.0 0.0 0.00 0.00 0.00 72 1009.8
20260904015003 84 0 0.0 0.0 0.00 0.00 0.00 72 1009.0
20260904013003 85 0 0.0 0.0 0.00 0.00 0.00 65 1009.0
20260904012004 86 0 0.0 0.0 0.00 0.00 0.00 62 1009.0
20260904011004 86 0 0.0 0.0 0.00 0.00 0.00 60 1009.0
20260904005003 87 146 0.0 0.0 0.00 0.00 0.00 58 1009.0
20260904004003 88 143 0.0 0.0 0.00 0.00 0.00 59 1009.0
20260904003003 87 128 0.0 0.0 0.00 0.00 0.00 60 1008.9
20260904002004 88 135 0.0 0.0 0.00 0.00 0.00 59 1008.9
20260903233003 90 118 0.0 0.0 0.00 0.00 0.00 58 1008.5
20260903232003 90 157 0.0 0.0 0.00 0.00 0.00 59 1008.5
20260903231004 90 130 0.0 0.0 0.00 0.00 0.00 59 1008.5
20260903230004 91 132 0.0 0.0 0.00 0.00 0.00 59 1008.5
20260903225003 91 101 0.0 0.0 0.00 0.00 0.00 58 1008.5
20260903224004 92 104 0.0 0.0 0.00 0.00 0.00 57 1008.6
20260903222004 93 149 0.0 0.0 0.00 0.00 0.00 56 1008.6
20260903221003 93 102 0.0 0.0 0.00 0.00 0.00 56 1008.6
20260903215004 93 137 0.0 0.0 0.00 0.00 0.00 57 1009.4
20260903214003 92 141 0.0 0.0 0.00 0.00 0.00 58 1009.4
20260903213003 92 154 0.0 0.0 0.00 0.00 0.00 58 1009.4
20260903212003 91 151 0.0 0.0 0.00 0.00 0.00 60 1009.4
20260903211003 90 196 0.0 0.0 0.00 0.00 0.00 61 1009.4
20260903210004 91 135 0.0 0.0 0.00 0.00 0.00 60 1009.4
20260903205004 92 139 0.0 0.0 0.00 0.00 0.00 58 1009.4
20260903204003 92 167 0.0 0.0 0.00 0.00 0.00 59 1009.4
20260903203004 92 115 0.0 0.0 0.00 0.00 0.00 60 1009.4
20260903202004 91 186 0.0 0.0 0.00 0.00 0.00 61 1009.5